Weather History for KIKV - March, 2014

Change the Weather History Date:

Tuesday, March 11, 2014

  Actual Average (KDSM) Record (KDSM)
Temperature  
Mean Temperature 40 °F 37 °F  
Max Temperature 44 °F 47 °F 82 °F (1972)
Min Temperature 35 °F 28 °F -12 °F (1948)
Degree Days  
Heating Degree Days 24 28  
Month to date heating degree days 330  
Since 1 July heating degree days 5161  
Cooling Degree Days 0 0  
Month to date cooling degree days 0  
Year to date cooling degree days 0  
Moisture  
Dew Point 34 °F    
Average Humidity 79    
Maximum Humidity 93    
Minimum Humidity 66    
Precipitation  
Precipitation 0.00 in 0.07 in 1.29 in (1977)
Month to date precipitation 0.71  
Year to date precipitation 2.99  
Snow  
Snow 0.00 in 0.20 in 3.60 in (1951)
Month to date snowfall 2.2  
Since 1 July snowfall 30.5  
Snow Depth -    
Sea Level Pressure  
Sea Level Pressure 29.72 in    
Wind  
Wind Speed 9 mph (NNE)    
Max Wind Speed 34 mph    
Max Gust Speed 45 mph    
Visibility 10 miles    
Events      
T = Trace of Precipitation, MM = Missing Value Source: NWS Daily Summary

Daily Weather History Graph

Daily Weather History Graph

Search for Another Location

Airport or City:

Trip Planner

Search our weather history database for the weather conditions in past years. The results will help you decide how hot, cold, wet, or windy it might be!

Date:

Astronomy

Mar. 11, 2014 Rise Set
Actual Time 7:32 AM CDT 7:16 PM CDT
Civil Twilight 7:05 AM CDT 7:44 PM CDT
Nautical Twilight 6:32 AM CDT 8:16 PM CDT
Astronomical Twilight 6:00 AM CDT 8:48 PM CDT
Moon 2:50 PM CDT (3/11) 4:29 AM CDT (3/11)
Length of Visible Light 12h 39m
Length of Day
11h 43m
Waxing Gibbous, 78% of the Moon is Illuminated
Mar 11
Waxing Gibbous
Mar 16
Full
Mar 23
Last Quarter
Mar 30
New
Apr 7
First Quarter

Hourly Weather History & Observations

Time (CDT) Temp. Windchill Dew Point Humidity Pressure Visibility Wind Dir Wind Speed Gust Speed Precip Events Conditions
12:15 AM 41.0 °F - 39.2 °F 93% 29.67 in 10.0 mi Calm Calm - N/A   Clear
12:35 AM 39.2 °F - 37.4 °F 93% 29.67 in 10.0 mi Calm Calm - N/A   Clear
12:55 AM 39.2 °F - 35.6 °F 87% 29.66 in 10.0 mi Calm Calm - N/A   Clear
1:15 AM 41.0 °F - 37.4 °F 87% 29.66 in 10.0 mi Calm Calm - N/A   Clear
1:35 AM 39.2 °F - 35.6 °F 87% 29.65 in 10.0 mi Calm Calm - N/A   Clear
1:55 AM 41.0 °F - 35.6 °F 81% 29.64 in 10.0 mi Calm Calm - N/A   Clear
2:10 AM 41.0 °F - 37.4 °F 87% 29.64 in 10.0 mi Calm Calm - N/A   Clear
2:35 AM 41.0 °F - 35.6 °F 81% 29.63 in 10.0 mi Calm Calm - N/A   Clear
2:55 AM 41.0 °F - 35.6 °F 81% 29.63 in 10.0 mi Calm Calm - N/A   Clear
3:15 AM 41.0 °F 39.0 °F 37.4 °F 87% 29.62 in 10.0 mi NE 3.5 mph - N/A   Clear
3:35 AM 39.2 °F 37.0 °F 35.6 °F 87% 29.62 in 10.0 mi NNE 3.5 mph - N/A   Clear
3:55 AM 41.0 °F 39.0 °F 35.6 °F 81% 29.61 in 10.0 mi ESE 3.5 mph - N/A   Clear
4:15 AM 41.0 °F - 35.6 °F 81% 29.61 in 10.0 mi Calm Calm - N/A   Clear
4:35 AM 39.2 °F - 35.6 °F 87% 29.61 in 10.0 mi Calm Calm - N/A   Clear
4:55 AM 39.2 °F 35.9 °F 35.6 °F 87% 29.61 in 10.0 mi NE 4.6 mph - N/A   Clear
5:15 AM 39.2 °F 35.9 °F 35.6 °F 87% 29.61 in 10.0 mi NE 4.6 mph - N/A   Clear
5:35 AM 39.2 °F 35.0 °F 35.6 °F 87% 29.61 in 10.0 mi NE 5.8 mph - N/A   Clear
5:55 AM 39.2 °F 35.9 °F 35.6 °F 87% 29.62 in 10.0 mi NE 4.6 mph - N/A   Partly Cloudy
6:15 AM 39.2 °F 35.0 °F 35.6 °F 87% 29.62 in 10.0 mi NE 5.8 mph - N/A   Clear
6:35 AM 39.2 °F 35.9 °F 35.6 °F 87% 29.61 in 10.0 mi ENE 4.6 mph - N/A   Clear
6:50 AM 39.2 °F 35.9 °F 35.6 °F 87% 29.61 in 10.0 mi East 4.6 mph - N/A   Clear
7:15 AM 39.2 °F 37.0 °F 33.8 °F 81% 29.61 in 10.0 mi ENE 3.5 mph - N/A   Clear
7:35 AM 39.2 °F 35.0 °F 33.8 °F 81% 29.60 in 10.0 mi ENE 5.8 mph - N/A   Clear
7:55 AM 41.0 °F 35.8 °F 33.8 °F 76% 29.60 in 10.0 mi East 8.1 mph - N/A   Clear
8:15 AM 41.0 °F 35.2 °F 33.8 °F 76% 29.59 in 10.0 mi East 9.2 mph - N/A   Clear
8:35 AM 41.0 °F 37.1 °F 33.8 °F 76% 29.61 in 10.0 mi NE 5.8 mph - N/A   Clear
8:55 AM 42.8 °F 37.5 °F 33.8 °F 70% 29.61 in 10.0 mi NE 9.2 mph - N/A   Clear
9:15 AM 42.8 °F 36.6 °F 33.8 °F 70% 29.62 in 10.0 mi NE 11.5 mph - N/A   Clear
9:35 AM 42.8 °F 35.8 °F 33.8 °F 70% 29.62 in 10.0 mi NE 13.8 mph - N/A   Clear
9:55 AM 42.8 °F 36.6 °F 33.8 °F 70% 29.61 in 10.0 mi NE 11.5 mph 19.6 mph N/A   Clear
10:15 AM 42.8 °F 35.8 °F 33.8 °F 70% 29.63 in 10.0 mi NE 13.8 mph - N/A   Clear
10:35 AM 41.0 °F 33.1 °F 33.8 °F 76% 29.64 in 10.0 mi NNE 15.0 mph - N/A   Clear
10:55 AM 42.8 °F 34.5 °F 33.8 °F 70% 29.65 in 10.0 mi NNE 18.4 mph - N/A   Clear
11:15 AM 42.8 °F 34.3 °F 33.8 °F 70% 29.67 in 10.0 mi NNE 19.6 mph 29.9 mph N/A   Clear
11:35 AM 42.8 °F 33.3 °F 33.8 °F 70% 29.67 in 10.0 mi NNE 24.2 mph - N/A   Clear
11:55 AM 42.8 °F 34.3 °F 33.8 °F 70% 29.68 in 10.0 mi NE 19.6 mph 28.8 mph N/A   Clear
12:15 PM 44.6 °F 35.7 °F 33.8 °F 66% 29.69 in 10.0 mi NNE 24.2 mph 35.7 mph N/A   Clear
12:35 PM 42.8 °F 33.5 °F 35.6 °F 76% 29.70 in 10.0 mi NNE 23.0 mph 35.7 mph N/A   Clear
12:55 PM 42.8 °F 32.9 °F 35.6 °F 76% 29.70 in 10.0 mi NNE 26.5 mph 39.1 mph N/A   Clear
1:15 PM 42.8 °F 32.7 °F 35.6 °F 76% 29.72 in 10.0 mi NNE 27.6 mph 36.8 mph N/A   Partly Cloudy
1:35 PM 42.8 °F 32.9 °F 37.4 °F 81% 29.71 in 10.0 mi NE 26.5 mph 36.8 mph N/A   Mostly Cloudy
1:55 PM 42.8 °F 32.7 °F 37.4 °F 81% 29.67 in 10.0 mi NE 27.6 mph 39.1 mph N/A   Scattered Clouds
2:15 PM 42.8 °F 33.3 °F 37.4 °F 81% 29.69 in 10.0 mi NE 24.2 mph 38.0 mph N/A   Mostly Cloudy
2:35 PM 42.8 °F 33.8 °F 37.4 °F 81% 29.69 in 10.0 mi NE 21.9 mph 32.2 mph N/A   Overcast
2:55 PM 42.8 °F 32.3 °F 35.6 °F 76% 29.70 in 10.0 mi NNE 29.9 mph 40.3 mph N/A   Overcast
3:15 PM 42.8 °F 33.1 °F 35.6 °F 76% 29.70 in 10.0 mi NNE 25.3 mph 44.9 mph N/A   Overcast
3:35 PM 41.0 °F 29.1 °F 35.6 °F 81% 29.71 in 10.0 mi NNE 34.5 mph 44.9 mph N/A   Overcast
3:55 PM 41.0 °F 30.2 °F 35.6 °F 81% 29.75 in 10.0 mi NNE 27.6 mph 36.8 mph N/A   Overcast
4:15 PM 41.0 °F 30.5 °F 35.6 °F 81% 29.77 in 10.0 mi NNE 26.5 mph 38.0 mph N/A   Overcast
4:35 PM 41.0 °F 30.7 °F 33.8 °F 76% 29.78 in 10.0 mi NNE 25.3 mph 38.0 mph N/A   Overcast
4:55 PM 41.0 °F 30.2 °F 35.6 °F 81% 29.81 in 10.0 mi NNE 27.6 mph 39.1 mph N/A   Overcast
5:15 PM 39.2 °F 29.3 °F 35.6 °F 87% 29.81 in 10.0 mi NNE 20.7 mph 35.7 mph N/A   Overcast
5:35 PM 39.2 °F 28.5 °F 33.8 °F 81% 29.82 in 10.0 mi NNE 24.2 mph 32.2 mph N/A   Overcast
5:55 PM 39.2 °F 30.5 °F 33.8 °F 81% 29.83 in 10.0 mi NNE 16.1 mph 27.6 mph N/A   Overcast
6:15 PM 39.2 °F 30.2 °F 33.8 °F 81% 29.85 in 10.0 mi NNE 17.3 mph - N/A   Overcast
6:35 PM 39.2 °F 29.8 °F 33.8 °F 81% 29.87 in 10.0 mi North 18.4 mph - N/A   Overcast
6:55 PM 37.4 °F 28.2 °F 33.8 °F 87% 29.87 in 10.0 mi North 16.1 mph 27.6 mph N/A   Overcast
7:15 PM 37.4 °F 27.8 °F 33.8 °F 87% 29.88 in 10.0 mi North 17.3 mph 24.2 mph N/A   Overcast
7:35 PM 37.4 °F 28.5 °F 32.0 °F 81% 29.89 in 10.0 mi North 15.0 mph 21.9 mph N/A   Overcast
7:55 PM 37.4 °F 28.5 °F 32.0 °F 81% 29.89 in 10.0 mi North 15.0 mph 21.9 mph N/A   Overcast
8:15 PM 37.4 °F 28.2 °F 32.0 °F 81% 29.87 in 10.0 mi North 16.1 mph - N/A   Overcast
8:35 PM 37.4 °F 27.5 °F 30.2 °F 75% 29.87 in 10.0 mi North 18.4 mph 26.5 mph N/A   Overcast
8:55 PM 37.4 °F 27.8 °F 30.2 °F 75% 29.88 in 10.0 mi North 17.3 mph 26.5 mph N/A   Overcast
9:15 PM 37.4 °F 27.2 °F 30.2 °F 75% 29.89 in 10.0 mi NNW 19.6 mph 26.5 mph N/A   Overcast
9:35 PM 37.4 °F 27.2 °F 30.2 °F 75% 29.90 in 10.0 mi North 19.6 mph 28.8 mph N/A   Overcast
9:55 PM 37.4 °F 27.5 °F 28.4 °F 70% 29.89 in 10.0 mi North 18.4 mph 28.8 mph N/A   Overcast
10:15 PM 37.4 °F 28.2 °F 28.4 °F 70% 29.90 in 10.0 mi North 16.1 mph 27.6 mph N/A   Overcast
10:35 PM 37.4 °F 27.8 °F 28.4 °F 70% 29.90 in 10.0 mi North 17.3 mph 25.3 mph N/A   Overcast
10:55 PM 37.4 °F 28.2 °F 28.4 °F 70% 29.92 in 10.0 mi North 16.1 mph 23.0 mph N/A   Overcast
11:15 PM 37.4 °F 27.8 °F 28.4 °F 70% 29.94 in - North 17.3 mph 27.6 mph N/A   Overcast
11:35 PM 37.4 °F 26.9 °F 28.4 °F 70% 29.94 in 10.0 mi NNW 20.7 mph 29.9 mph N/A   Overcast
11:55 PM 35.6 °F 24.8 °F 26.6 °F 70% 29.95 in 10.0 mi North 19.6 mph 26.5 mph N/A   Overcast